Tracking 28052 objects as of 23-Sep-2023
HD Live streaming from Space Station
objects crossing your sky now

SL-8 DEB

Track SL-8 DEB now!
10-day predictions


NORAD ID: 21408
Int'l Code: 1991-009BX
Perigee: 1,456.9 km
Apogee: 1,779.0 km
Inclination: 74.0 °
Period: 118.4 minutes
Semi major axis: 7988 km
RCS: 0.0598 m2 (small)
Launch date: February 12, 1991
Source: Commonwealth of Independent States (former USSR) (CIS)
Launch site: PLESETSK MISSILE AND SPACE COMPLEX (PKMTR)

Note: This is SATELLITE DEBRIS
Your satellite tracking list
Your tracking list is empty




NASA's NSSDC Master Catalog

Two Line Element Set (TLE):
1 21408U 91009BX  23265.56756825  .00000091  00000-0  99967-3 0  9999
2 21408  74.0232 114.0333 0201592  62.7381 326.7621 12.15813509444055
Source of the keplerian elements: AFSPC